Regional Weather Roundup
Issued by NWS

Home | Current Version | Previous Version | Text Only | Print | Product List | Glossary Off
Versions: 1 2 3 4 5 6 7 8 9 10 11 12 13 14 15 16 17 18 19 20 21 22 23 24 25 26 27 28 29 30 31 32 33 34 35 36 37 38 39 40 41 42 43 44 45 46 47 48 49 50

000
ASUS45 KCYS 210910
RWRWY

WYOMING REGIONAL WEATHER ROUNDUP
NATIONAL WEATHER SERVICE CHEYENNE WY
200 AM MST SAT JAN 21 2017

NOTE:  "FAIR" INDICATES FEW OR NO CLOUDS BELOW 12,000 FEET
WITH NO SIGNIFICANT WEATHER AND/OR OBSTRUCTIONS TO VISIBILITY.

WYZ001-211000-
YELLOWSTONE NATIONAL PARK

CITY           SKY/WX    TMP DP  RH WIND       PRES   REMARKS
LK YELLOWSTONE   N/A      4   2  91 CALM      29.33F
W YELLOWSTONE  NOT AVBL

$$
WYZ002>013-054>058-071-098>099-211000-
NORTHERN WYOMING

CITY           SKY/WX    TMP DP  RH WIND       PRES   REMARKS
JACKSON        CLOUDY    16  16 100 N3        29.35R
CODY           FAIR      24  12  60 SW9       29.34S WCI  14
GREYBULL       FOG       11   7  84 CALM      29.38F VSB 1/4
WORLAND        FOG        7   6  96 CALM      29.37S VSB 3/4
SHERIDAN       FAIR      19  16  88 S5        29.35S WCI  12
BUFFALO        FAIR      29  18  63 W3        29.35R
GILLETTE       FAIR      26  24  92 CALM      29.36R
HULETT         CLOUDY    32  32 100 MISG      29.36S FOG
NEWCASTLE      CLOUDY    32  32 100 NW8       29.38S WCI  25

$$
WYZ014>020-022>026-101>103-211000-
CENTRAL WYOMING

CITY           SKY/WX    TMP DP  RH WIND       PRES   REMARKS
BIG PINEY      FLURRIES   6   3  87 CALM      29.35F
PINEDALE       LGT SNOW   5   3  92 W6        29.35F WCI  -6
DUBOIS         NOT AVBL
LANDER         FAIR      17  14  88 VRB3      29.34S
RIVERTON       FOG      N/A N/A N/A CALM      29.36R VSB 1/4
CASPER         FAIR      23  17  78 SW13      29.36S WCI  11
DOUGLAS        FAIR      16  13  88 CALM      29.38S

$$
WYZ021-027>030-104>119-211000-
SOUTHERN WYOMING

CITY           SKY/WX    TMP DP  RH WIND       PRES   REMARKS
EVANSTON       CLOUDY    14  10  84 E12       29.28S WCI   0
ROCK SPRINGS   MOCLDY    22  16  78 SE7       29.32F WCI  13
RAWLINS        MOCLDY    17  13  84 NE7       29.37S WCI   8
LARAMIE        FAIR      12   7  80 SE8       29.37F WCI   0
CHEYENNE       FAIR      24  17  74 SW14      29.38F WCI  12
TORRINGTON     FAIR      24  19  81 CALM      29.39S

$$



USA.gov is the U.S. government's official web portal to all federal, state and local government web resources and services.